Voltar ao catálogo

ARIANE 44LP DEB

AtivoGTO
NORAD 25543·DEBRIS·🇫🇷 France

Lançado Dec 11, 1988 de Guiana Space Centre

Loading…

TLE

ObsoletoSource: Space-Track

Época: Sep 13, 2026, 16:25 UTC

1 25543U 88109K   26256.68467328  .00000047  00000-0  89317-3 0  9992
2 25543   6.5398 188.2794 7174422 148.4613 287.9087  2.30749820238723

Acompanhe ARIANE 44LP DEB em tempo real com AllMySat

Download on the App Store